This demonstration page uses our WeatherBlox Daily Observations layout. Learn more.

Hourly Observations for March 21, 2015

Temp ( °F °C ) Dew Point ( °F °C ) Humidity (%) Winds ( mph kmh ) Pressure ( in mb ) Visibility ( mi km ) Precip ( " mm )
12:15 am 00:15 Clear 51 10.5 20 -6.6 30 30 W 6 9 30.09 1019 10 16.0934 0 0
12:35 am 00:35 Clear 53 11.7 20 -6.5 28 28 WSW 5 7 30.09 1019 10 16.0934 0 0
12:55 am 00:55 Clear 51 10.3 21 -6.3 31 31 WSW 6 9 30.12 1020 10 16.0934 0 0
1:15 am 01:15 Clear 53 11.6 23 -5.2 31 31 WSW 7 11 30.09 1019 10 16.0934 0 0
1:35 am 01:35 Clear 48 8.8 21 -6.3 34 34 NNW 6 9 30.12 1020 10 16.0934 0 0
1:55 am 01:55 Clear 49 9.6 20 -6.7 31 31 NW 6 9 30.12 1020 10 16.0934 0 0
2:15 am 02:15 Clear 45 7.2 19 -7.5 35 35 WNW 5 7 30.18 1022 10 16.0934 0 0
2:35 am 02:35 Clear 44 6.8 19 -7.4 36 36 Calm 30.18 1022 10 16.0934 0 0
2:55 am 02:55 Clear 43 6.1 19 -7.2 38 38 W 5 7 30.15 1021 10 16.0934 0 0
3:15 am 03:15 Clear 41 4.9 19 -7.5 41 41 NW 5 7 30.15 1021 10 16.0934 0 0
3:35 am 03:35 Clear 40 4.4 19 -7.5 42 42 NW 5 7 30.15 1021 10 16.0934 0 0
3:55 am 03:55 Clear 38 3.5 18 -7.7 44 44 NW 6 9 30.15 1021 10 16.0934 0 0
4:15 am 04:15 Clear 38 3.2 17 -8.1 44 44 N 6 9 30.18 1022 10 16.0934 0 0
4:35 am 04:35 Clear 35 1.5 18 -8 50 50 N 8 13 30.18 1022 10 16.0934 0 0
4:55 am 04:55 Clear 35 1.6 18 -7.6 51 51 NNE 8 13 30.18 1022 10 16.0934 0 0
5:15 am 05:15 Clear 38 3.3 19 -7.1 47 47 NNE 6 9 30.18 1022 10 16.0934 0 0
5:35 am 05:35 Clear 35 1.7 19 -7.1 52 52 NNE 8 13 30.21 1023 10 16.0934 0 0
5:55 am 05:55 Clear 34 1.3 20 -6.7 56 56 NE 9 15 30.21 1023 10 16.0934 0 0
6:15 am 06:15 Clear 37 2.6 25 -4.1 62 62 NE 10 17 30.21 1023 10 16.0934 0 0
6:35 am 06:35 Clear 36 2.4 25 -4 63 63 ENE 8 13 30.21 1023 10 16.0934 0 0
6:55 am 06:55 Clear 35 1.8 25 -4 66 66 ENE 6 9 30.21 1023 10 16.0934 0 0
7:15 am 07:15 Clear 34 1.3 25 -4.1 68 68 ENE 6 9 30.21 1023 10 16.0934 0 0
7:35 am 07:35 Clear 33 0.5 25 -4.1 72 72 ENE 3 6 30.21 1023 10 16.0934 0 0
7:55 am 07:55 Sunny 32 0.1 25 -3.9 75 75 ENE 6 9 30.24 1024 10 16.0934 0 0
8:15 am 08:15 Sunny 33 0.6 26 -3.2 76 76 ENE 5 7 30.21 1023 10 16.0934 0 0
8:35 am 08:35 Sunny 37 2.5 29 -1.6 75 75 E 7 11 30.21 1023 10 16.0934 0 0
8:55 am 08:55 Sunny 39 3.8 30 -1 71 71 ENE 7 11 30.24 1024 10 16.0934 0 0
9:15 am 09:15 Sunny 41 5 31 -0.5 68 68 E 9 15 30.21 1023 10 16.0934 0 0
9:35 am 09:35 Sunny 44 6.5 32 0 64 64 E 12 19 30.21 1023 10 16.0934 0 0
9:55 am 09:55 Sunny 46 7.9 32 0.2 59 59 E 15 24 30.18 1022 10 16.0934 0 0
10:15 am 10:15 Sunny 48 8.7 32 0.2 56 56 E 14 22 30.15 1021 10 16.0934 0 0
10:35 am 10:35 Sunny 50 9.9 32 0.2 51 51 E 17 28 30.15 1021 10 16.0934 0 0
10:55 am 10:55 Sunny 52 11 32 0.2 48 48 E 15 24 30.12 1020 10 16.0934 0 0
11:15 am 11:15 Sunny 54 12.4 32 0.2 43 43 E 15 24 30.12 1020 10 16.0934 0 0
11:35 am 11:35 Sunny 56 13.4 32 0 40 40 ESE 15 24 30.12 1020 10 16.0934 0 0
11:55 am 11:55 Sunny 58 14.3 32 -0.1 38 38 ESE 16 26 30.09 1019 10 16.0934 0 0
12:15 pm 12:15 Sunny 59 15 32 -0.1 36 36 ESE 14 22 30.09 1019 10 16.0934 0 0
12:35 pm 12:35 Sunny 61 16.1 32 -0.1 33 33 ESE 15 24 30.09 1019 10 16.0934 0 0
12:55 pm 12:55 Sunny 62 16.7 32 -0.2 32 32 ESE 9 15 30.09 1019 10 16.0934 0 0
1:15 pm 13:15 Sunny 64 17.8 31 -0.3 30 30 SE 10 17 30.06 1018 10 16.0934 0 0
1:35 pm 13:35 Sunny 66 18.8 31 -0.3 28 28 SE 7 11 30.03 1017 10 16.0934 0 0
1:55 pm 13:55 Sunny 67 19.4 31 -0.3 27 27 SSE 9 15 30.03 1017 10 16.0934 0 0
2:15 pm 14:15 Sunny 68 20.1 31 -0.6 25 25 SSE 7 11 30.03 1017 10 16.0934 0 0
2:35 pm 14:35 Sunny 69 20.4 31 -0.7 24 24 S 7 11 30.03 1017 10 16.0934 0 0
2:55 pm 14:55 Sunny 70 21 29 -1.6 22 22 S 17 28 29.97 1015 10 16.0934 0 0
3:15 pm 15:15 Sunny 70 21.1 29 -1.6 22 22 S 8 13 29.97 1015 10 16.0934 0 0
3:35 pm 15:35 Sunny 71 21.9 27 -2.6 19 19 S 12 19 29.97 1015 10 16.0934 0 0
3:55 pm 15:55 Sunny 71 21.7 28 -2.4 20 20 S 15 24 29.94 1014 10 16.0934 0 0
4:15 pm 16:15 Sunny 71 21.7 28 -2.4 20 20 SSE 10 17 29.94 1014 10 16.0934 0 0
4:35 pm 16:35 Sunny 72 22 26 -3.2 18 18 SSW 13 20 29.94 1014 10 16.0934 0 0
4:55 pm 16:55 Sunny 71 21.9 28 -2 20 20 SSW 8 13 29.94 1014 10 16.0934 0 0
5:15 pm 17:15 Sunny 71 21.7 29 -1.5 21 21 S 7 11 29.91 1013 10 16.0934 0 0
5:35 pm 17:35 Sunny 71 21.7 29 -1.7 21 21 S 12 19 29.91 1013 10 16.0934 0 0
5:55 pm 17:55 Sunny 71 21.7 29 -1.6 21 21 SSW 8 13 29.91 1013 10 16.0934 0 0
6:15 pm 18:15 Sunny 71 21.5 29 -1.7 21 21 S 8 13 29.91 1013 10 16.0934 0 0
6:35 pm 18:35 Sunny 70 21.2 28 -2.4 20 20 S 9 15 29.91 1013 10 16.0934 0 0
6:55 pm 18:55 Sunny 70 20.9 25 -3.8 19 19 S 13 20 29.91 1013 10 16.0934 0 0
7:15 pm 19:15 Sunny 68 20.2 24 -4.2 19 19 S 9 15 29.91 1013 10 16.0934 0 0
7:35 pm 19:35 Sunny 65 18.1 25 -4 22 22 SSE 7 11 29.94 1014 10 16.0934 0 0
7:55 pm 19:55 Clear 60 15.5 25 -4 26 26 SSE 8 13 29.94 1014 10 16.0934 0 0
8:15 pm 20:15 Clear 57 14 25 -3.7 29 29 SSE 10 17 29.94 1014 10 16.0934 0 0
8:35 pm 20:35 Clear 56 13.1 26 -3.5 32 32 SSE 10 17 29.94 1014 10 16.0934 0 0
8:55 pm 20:55 Clear 53 11.5 25 -3.7 35 35 SSE 7 11 29.97 1015 10 16.0934 0 0
9:15 pm 21:15 Clear 48 9.1 25 -4 40 40 SE 8 13 30.03 1017 10 16.0934 0 0
9:35 pm 21:35 Clear 50 9.9 26 -3.4 39 39 SE 9 15 30 1016 10 16.0934 0 0
9:55 pm 21:55 Clear 49 9.5 26 -3.3 41 41 SE 8 13 30 1016 10 16.0934 0 0
10:15 pm 22:15 Clear 50 9.9 26 -3.3 40 40 SSE 8 13 30 1016 10 16.0934 0 0
10:35 pm 22:35 Clear 49 9.5 26 -3.1 41 41 SSE 9 15 30 1016 10 16.0934 0 0
10:55 pm 22:55 Clear 51 10.3 27 -2.7 40 40 S 8 13 30 1016 10 16.0934 0 0
11:15 pm 23:15 Clear 51 10.8 27 -2.7 39 39 S 8 13 30 1016 10 16.0934 0 0
11:35 pm 23:35 Clear 49 9.3 27 -2.9 43 43 S 9 15 30.03 1017 10 16.0934 0 0
11:55 pm 23:55 Clear 50 10 27 -2.6 41 41 S 10 17 30 1016 10 16.0934 0 0

Powered by AerisWeather